Voltar ao catálogo

STARLINK-37557

AtivoComunicaçõesSSO
NORAD 69231·PAYLOAD·🇺🇸 United States

Lançado May 26, 2026 de Vandenberg Space Force Base

Loading…

Próximas Passagens (próximas 24 horas)

TLE

AtualizadoSource: CelesTrak SupGP

Época: Sep 14, 2026, 23:02 UTC

1 69231C 26115W   26257.96020833  .00052419  00000+0  16273-2 0  2577
2 69231  97.2830 274.1966 0001129  97.1458 332.3524 15.33410795    15

Acompanhe STARLINK-37557 em tempo real com AllMySat

Download on the App Store